Theta_e
306 306 307 308 308 309 309 309 310 310 310 311 312 313 312 310 310 314 315 315 316 315 315 315 315 317 317 317 319 321 324 324 322 325 324 323 325 328 330 332 338 341 343 347 348 348 348 348 348 347 346 346 345 344 343 343 342 342 341 340 342 342 342 342 342 341 341 340 340 339 339 337 337 337 337 338 339 339 340 339 338 338 337 337 337 337
307 307 307 308 308 308 309 309 309 309 310 310 311 311 312 311 311 314 315 315 317 314 313 316 315 316 317 317 319 319 320 322 322 323 324 324 326 331 330 331 336 339 344 348 347 347 348 348 348 347 346 346 345 345 344 343 343 342 341 340 342 342 342 342 342 341 341 340 340 339 337 336 336 337 337 338 339 339 339 338 338 338 337 337 337 337
306 307 307 308 308 309 308 309 309 309 309 310 310 310 310 312 312 314 315 315 316 314 313 315 315 315 317 317 318 319 319 320 323 323 325 326 330 333 331 333 337 338 345 350 349 349 348 348 348 347 347 346 345 344 344 343 343 342 341 341 342 342 342 342 341 341 341 340 339 338 337 336 337 337 338 339 339 339 339 338 338 337 337 337 336 336
304 306 307 308 308 308 309 309 309 309 309 309 310 309 309 311 312 311 313 315 315 315 314 315 316 315 317 317 318 319 318 320 326 331 331 330 331 332 332 336 337 339 347 349 349 349 348 348 348 347 347 346 345 344 344 344 343 342 342 341 342 342 342 341 340 341 341 339 338 338 337 337 338 337 337 338 339 339 338 337 337 336 336 336 335 335
304 305 306 308 308 308 309 309 309 309 310 309 309 309 309 311 312 311 314 315 314 315 315 315 311 312 317 317 317 319 319 320 326 334 334 331 333 330 331 336 336 341 345 347 348 348 348 347 347 346 346 346 345 344 344 344 343 343 342 342 342 342 342 342 340 341 340 339 338 338 338 338 337 337 337 337 338 338 336 336 336 335 335 334 333 333
304 305 306 307 307 308 308 309 309 309 309 309 309 310 310 312 312 313 315 315 312 311 314 314 307 308 315 316 317 319 319 319 323 330 331 330 331 328 330 335 335 342 345 345 348 347 347 347 346 346 346 346 344 344 344 345 344 343 342 342 342 342 342 342 341 340 339 338 337 338 338 337 337 337 337 337 337 336 336 335 335 334 333 332 332 331
304 305 305 306 306 308 308 308 309 309 309 309 310 310 311 313 312 312 313 312 309 309 314 314 308 308 312 315 317 319 318 319 322 328 327 327 330 327 327 331 335 345 347 347 348 347 347 347 346 346 347 345 344 344 344 344 345 344 343 343 342 342 341 341 340 339 339 338 337 338 338 337 337 337 337 337 336 336 335 334 333 333 332 331 330 329
304 304 305 305 305 306 307 308 309 309 309 309 311 311 311 312 311 313 313 311 311 311 313 315 311 309 309 314 319 319 318 319 321 326 326 326 329 328 327 328 335 346 348 349 348 347 346 346 346 346 347 345 344 345 343 343 345 344 344 343 342 342 341 340 339 339 338 338 338 338 338 337 337 337 337 336 336 335 334 333 332 331 330 328 328 327
304 304 304 305 305 305 306 307 308 309 309 309 311 312 311 311 312 313 312 311 312 312 309 311 311 310 308 313 319 319 318 318 319 323 326 328 329 327 328 328 335 344 347 348 348 346 345 345 346 346 346 345 344 344 343 343 344 343 343 343 342 341 340 339 339 338 338 338 338 337 337 337 337 337 337 336 335 334 333 332 330 329 328 326 326 325
303 304 304 304 304 305 305 307 308 308 309 310 311 312 312 312 311 313 313 311 312 312 310 309 309 309 309 311 315 317 316 317 319 319 323 329 328 327 329 328 335 343 345 347 346 345 345 345 346 346 345 344 344 344 343 343 343 343 343 342 341 340 339 339 339 338 338 338 338 337 337 337 337 336 335 334 333 332 331 330 329 327 326 325 325 324
304 304 305 304 305 305 305 306 307 308 309 310 310 311 311 312 312 313 313 311 312 314 311 309 309 310 310 310 313 316 317 318 320 319 323 329 328 327 330 329 335 343 344 346 346 345 345 346 345 345 344 344 344 343 342 342 342 342 343 341 340 339 338 338 338 337 338 338 337 337 336 336 336 335 334 333 333 331 330 329 328 327 326 325 324 323
304 304 304 304 305 305 305 306 307 308 309 310 310 310 311 312 311 311 311 312 315 314 310 310 310 310 309 310 313 317 320 319 319 320 324 329 329 329 330 328 332 339 343 345 345 345 345 345 345 345 344 344 344 342 342 342 341 342 342 340 339 338 338 338 337 337 338 338 337 337 336 336 336 335 333 333 332 331 330 329 328 327 326 325 324 322
304 304 303 304 305 305 305 306 307 308 309 310 310 310 311 312 313 313 313 313 314 312 311 311 311 310 309 312 316 318 319 319 319 320 323 327 329 329 328 328 332 336 340 345 346 345 345 345 344 344 344 344 343 342 342 341 341 342 342 340 339 338 338 338 337 337 338 338 337 337 337 336 336 335 333 333 332 331 331 330 329 327 326 324 323 321
304 304 303 303 304 304 305 305 306 308 308 309 309 310 311 312 315 317 315 314 314 312 311 311 311 310 309 313 318 318 318 320 321 320 322 327 330 330 328 328 333 335 337 345 347 345 345 344 344 344 344 344 343 341 342 341 341 343 341 340 339 338 338 338 338 338 338 338 337 337 337 337 336 334 333 333 332 331 331 330 329 327 325 324 323 322
304 304 303 303 304 304 305 306 307 308 308 310 310 309 311 312 315 317 315 314 314 312 311 311 312 310 308 314 318 318 319 321 321 320 323 328 330 331 330 328 333 334 334 343 347 345 345 344 344 344 344 344 342 342 342 341 341 342 341 339 339 338 338 339 338 338 339 338 337 337 337 336 335 333 333 333 331 330 330 330 329 326 325 324 323 322
304 304 304 305 305 304 305 306 307 309 309 310 310 309 312 312 313 315 315 314 313 313 312 311 312 312 313 318 319 318 319 319 321 320 321 328 330 331 332 329 333 334 333 343 347 346 344 344 344 344 344 343 343 342 342 341 341 341 340 340 339 339 339 339 339 339 339 338 337 337 337 336 334 333 333 333 331 331 330 330 329 327 325 324 322 321
305 305 305 306 305 304 306 307 308 310 310 310 310 310 312 312 313 315 316 314 314 315 314 311 311 313 314 318 320 320 319 318 320 319 321 327 330 331 332 332 334 334 335 345 346 346 344 343 344 344 344 343 342 342 341 341 341 341 340 340 340 340 339 340 340 339 339 338 338 337 336 335 333 333 334 333 331 331 331 330 329 327 325 323 322 320
306 306 306 306 305 305 306 308 308 310 311 311 311 311 311 312 313 315 317 316 315 316 314 310 311 312 310 314 322 322 319 319 321 322 324 328 331 332 332 334 334 332 340 346 346 345 343 343 343 344 343 343 342 342 341 341 341 341 341 341 341 340 339 340 340 339 339 338 337 337 336 335 333 334 334 332 331 331 331 329 328 327 324 322 321 320
307 308 308 307 306 306 306 308 309 310 310 311 312 311 311 312 312 313 317 318 316 315 315 311 310 311 309 312 319 322 321 321 323 326 327 328 330 332 333 335 333 336 346 348 347 345 343 342 343 343 343 343 342 342 342 341 341 341 340 341 341 341 340 340 340 339 339 338 337 336 336 334 334 334 333 332 332 331 330 328 327 326 324 322 321 319
308 309 310 308 307 307 307 308 310 310 310 310 311 311 311 311 312 312 315 315 314 315 316 313 312 311 312 315 318 321 323 323 325 328 329 329 331 332 333 334 333 339 347 348 347 345 344 342 342 343 343 343 343 342 342 341 341 341 340 341 341 341 340 340 339 339 339 338 337 336 335 333 333 333 333 332 332 330 328 328 327 325 323 321 320 318
309 310 310 310 307 307 308 309 309 310 311 311 311 312 312 311 312 313 313 312 313 315 316 317 315 311 314 320 322 322 325 325 326 329 329 330 331 331 334 335 335 339 345 347 347 345 344 343 343 343 343 343 343 342 342 341 340 340 340 341 341 341 340 340 339 339 338 337 337 336 334 333 332 333 333 331 330 329 328 327 326 324 322 321 319 318
309 310 311 311 309 307 308 309 309 310 312 312 312 312 312 312 311 313 315 313 311 314 315 316 315 312 316 323 323 323 327 326 326 328 329 331 330 332 335 336 336 340 342 347 348 345 344 343 343 343 343 343 343 342 341 341 341 341 340 340 340 340 340 340 339 338 338 337 336 335 333 332 333 333 332 330 329 328 327 326 324 323 321 320 319 317
310 311 312 312 311 308 308 309 309 310 312 312 312 312 313 312 310 312 315 315 313 313 312 313 313 314 321 328 325 325 328 325 326 328 329 331 331 333 335 334 337 340 341 345 347 346 345 344 343 342 342 343 343 341 341 341 341 341 340 340 340 340 339 339 338 338 338 337 336 335 333 333 333 332 331 330 329 328 326 325 323 322 320 319 318 317
311 312 312 312 311 309 309 309 309 310 311 312 313 312 312 311 311 312 314 316 316 314 312 313 313 314 323 333 330 327 328 327 328 329 329 331 333 335 334 333 339 342 341 344 346 346 345 343 343 342 341 343 343 341 341 341 341 341 340 339 339 340 339 338 338 338 337 337 336 335 334 333 333 331 330 329 328 327 325 323 322 321 319 319 318 316
312 313 313 313 311 310 312 312 310 310 311 312 313 313 312 311 312 313 314 315 318 315 312 313 313 314 322 331 329 326 326 326 328 329 330 331 333 334 333 335 341 344 345 346 345 346 345 344 343 341 341 343 342 342 341 340 341 341 340 339 339 339 339 338 338 337 337 336 335 335 334 333 331 330 329 328 326 325 324 322 322 320 319 318 317 316
312 313 314 314 313 311 313 314 312 311 311 312 313 313 313 312 312 313 314 314 318 317 314 314 314 317 322 326 326 325 325 325 326 328 329 330 333 335 335 339 342 343 345 346 345 346 345 344 343 342 341 342 342 342 341 340 341 341 340 340 339 339 339 338 337 337 337 336 335 334 333 332 331 330 328 327 325 324 323 322 321 319 319 317 316 315
312 313 314 315 314 313 313 313 311 312 312 313 313 313 313 313 312 314 314 314 316 317 315 316 318 319 321 322 324 326 326 326 328 328 327 330 335 338 339 340 341 342 342 343 343 344 345 344 343 342 342 342 341 342 341 340 341 340 340 340 339 339 339 338 337 337 336 335 334 334 333 332 330 329 328 326 324 323 322 321 320 319 319 317 316 315
312 314 315 315 315 314 313 312 311 312 312 313 313 314 313 313 313 315 315 315 317 317 316 321 323 320 320 321 322 325 327 328 329 329 328 332 335 337 338 337 338 341 342 342 342 342 344 344 344 343 342 342 341 341 341 341 340 340 340 339 339 339 339 338 337 336 335 334 334 333 332 331 329 328 327 325 324 323 322 321 320 319 318 317 315 315
311 314 315 315 316 315 313 313 312 312 312 313 313 314 313 314 315 316 315 315 317 317 318 324 324 320 322 325 325 326 328 328 329 331 333 335 335 333 334 335 336 339 340 341 343 344 343 343 343 343 343 342 341 341 341 340 340 340 339 339 339 339 338 338 337 335 334 334 334 332 331 330 329 327 326 324 323 322 321 320 319 319 318 316 315 315
312 313 315 316 317 317 315 315 313 311 312 313 313 314 314 313 315 315 314 317 319 318 320 327 330 329 330 331 328 328 330 329 329 331 333 335 337 337 337 338 340 341 339 339 341 343 342 342 343 343 342 342 342 341 341 340 340 340 339 339 339 338 337 337 336 335 334 334 333 332 330 329 328 327 325 324 323 322 321 320 319 318 317 316 315 315
314 314 316 318 318 319 317 315 313 312 313 313 313 314 314 313 314 314 316 319 320 318 320 326 330 333 334 332 329 329 330 328 326 329 330 332 336 341 343 340 338 340 340 339 340 341 341 341 342 342 342 342 342 341 341 340 340 339 339 339 339 337 336 336 335 335 334 333 333 331 330 329 328 327 325 323 322 321 320 319 319 318 317 316 315 314
316 316 317 319 319 319 317 316 316 314 313 313 314 313 314 314 315 315 317 319 319 318 321 320 320 325 330 328 327 328 327 326 324 326 329 329 332 339 341 339 337 337 340 341 341 341 341 340 341 342 342 342 342 341 340 340 340 339 339 339 339 337 335 335 335 334 334 333 331 330 329 329 328 326 323 322 321 320 320 319 319 318 317 316 315 314
317 318 318 319 319 320 319 319 320 319 315 314 315 314 315 315 315 315 316 318 318 319 321 318 317 325 330 328 327 326 325 326 327 327 327 327 329 333 335 335 336 335 338 341 341 340 340 340 341 342 342 342 341 341 340 340 339 339 339 339 338 336 335 335 334 333 333 332 330 329 328 328 326 324 322 321 321 320 320 319 318 318 317 316 315 313
317 320 319 319 319 320 320 320 322 322 318 316 316 315 315 315 315 315 315 316 317 317 319 318 319 326 328 326 327 327 327 329 330 329 328 326 328 332 331 331 333 332 333 338 339 339 340 340 342 342 342 341 340 340 339 338 338 339 338 338 337 336 335 335 334 332 331 331 329 328 327 326 325 323 321 320 320 320 319 318 318 317 316 315 314 312
317 319 319 319 319 320 321 322 322 322 320 318 317 316 316 315 315 316 315 316 316 316 317 318 318 322 324 325 326 326 328 330 329 327 328 326 327 332 334 334 333 332 333 336 337 338 340 342 343 342 341 341 340 339 338 337 337 338 338 337 336 335 334 334 333 331 331 330 328 327 326 324 323 321 320 320 320 320 319 319 318 317 316 315 313 312
315 316 317 318 319 321 322 321 320 320 321 322 319 315 316 317 316 318 318 316 316 317 317 317 317 319 321 322 323 322 323 326 327 328 329 328 328 331 335 337 335 334 335 337 338 339 339 342 343 342 341 340 339 339 338 337 337 338 337 336 335 334 334 333 332 331 330 329 327 326 324 323 322 321 320 320 320 320 319 318 318 317 315 314 313 312
314 315 318 319 319 320 321 321 320 318 321 324 321 317 318 317 317 319 318 318 318 318 316 317 318 319 319 320 320 320 321 322 325 328 328 328 330 331 334 338 339 336 336 339 340 339 339 340 342 342 341 340 339 338 338 338 338 337 337 335 334 334 334 333 332 331 330 328 326 325 324 323 322 321 320 320 320 320 319 318 318 316 314 314 313 312
317 317 318 319 319 319 320 322 321 319 320 324 324 324 324 322 322 322 318 317 319 319 317 318 319 318 319 319 318 320 321 320 321 326 328 328 330 332 336 340 340 338 337 340 340 340 340 341 341 341 340 340 339 338 337 337 337 337 335 334 333 333 333 332 332 331 329 327 326 326 325 323 322 321 320 320 320 319 319 318 317 315 314 314 313 313
319 317 317 318 319 320 321 322 322 319 321 325 327 327 325 323 324 323 317 315 318 319 318 318 319 319 319 318 319 322 320 317 322 331 336 332 330 333 337 339 338 336 336 337 339 339 340 340 340 340 339 339 339 338 337 336 336 335 334 333 332 332 332 332 331 329 328 327 326 326 325 323 322 321 321 320 319 319 318 317 316 315 314 314 314 313
318 319 318 319 319 320 321 321 320 320 323 326 327 326 324 323 324 322 317 318 323 325 323 320 319 319 320 320 321 321 317 317 327 338 340 336 334 336 338 338 336 335 335 336 337 339 340 340 339 339 339 339 338 337 336 335 335 333 332 332 332 331 331 331 330 329 328 327 326 325 323 322 321 321 320 319 319 318 317 317 316 315 314 314 313 311
319 320 320 320 320 319 320 320 320 321 325 328 327 326 324 324 323 322 321 325 331 332 330 327 321 319 321 322 320 319 321 327 336 341 340 337 337 338 337 336 336 335 335 335 336 339 340 340 339 339 338 337 337 336 335 335 334 333 332 331 331 331 331 331 330 329 327 327 326 323 321 321 321 320 319 319 318 318 317 316 315 314 313 312 311 310
320 319 319 319 320 319 320 320 320 320 323 327 327 326 325 324 323 323 327 331 332 331 331 330 325 319 321 322 320 322 330 336 337 338 339 338 339 340 338 335 335 336 335 335 336 339 340 339 339 339 337 336 335 335 335 334 333 332 332 331 331 331 331 330 329 329 327 327 325 322 320 320 320 319 318 318 317 317 316 315 314 313 312 311 309 308
321 320 319 319 319 320 320 320 321 321 323 327 328 327 326 327 326 327 331 332 330 330 331 331 328 322 320 322 322 325 334 338 336 335 337 338 339 340 339 336 336 337 337 336 337 338 338 338 338 338 337 335 334 334 334 333 332 332 332 332 331 331 331 331 330 329 327 326 324 321 320 320 319 318 317 317 316 316 314 313 312 311 310 309 308 307
321 321 321 320 320 320 321 321 322 322 324 326 328 328 327 328 328 328 330 331 330 331 331 331 332 329 322 321 327 331 337 340 338 336 337 338 337 339 340 338 337 337 336 336 337 337 337 337 336 337 337 335 334 333 333 333 332 331 331 331 332 330 330 330 329 327 325 323 322 321 320 319 318 317 317 316 315 314 312 311 310 309 309 308 307 306
321 321 322 323 321 320 321 320 320 322 324 326 326 326 326 327 327 328 330 330 331 332 331 331 332 335 330 327 333 336 337 339 337 335 337 339 338 338 338 337 337 337 336 336 336 336 336 336 336 335 336 335 334 333 333 332 332 331 331 332 331 329 327 326 325 323 322 321 319 319 318 318 317 316 316 315 313 312 311 310 309 308 307 307 306 305
320 320 322 323 322 320 321 321 321 322 326 326 325 325 325 326 327 328 328 328 329 331 330 330 332 333 334 333 333 336 336 337 338 338 338 338 338 338 337 337 336 337 336 336 336 336 336 336 335 335 335 335 334 333 333 333 332 332 332 332 330 328 326 325 323 321 320 319 318 317 316 315 314 314 314 313 312 311 310 309 308 307 306 306 305 304
321 321 321 322 322 322 323 324 324 324 325 324 324 326 326 326 326 326 326 326 329 330 329 328 330 330 329 332 333 335 336 337 338 340 340 338 338 338 337 337 337 336 336 336 335 335 336 336 335 335 334 334 334 333 333 332 332 332 331 331 331 329 327 326 323 321 320 318 317 316 315 314 313 312 312 311 311 310 309 309 308 307 306 305 305 305
322 322 321 322 322 322 323 322 323 324 325 324 325 326 327 327 326 325 324 326 328 330 330 329 330 330 329 331 332 334 335 335 337 338 338 337 338 338 337 337 337 336 336 335 335 335 336 336 335 334 334 334 333 332 332 332 331 331 330 330 329 327 325 324 322 321 320 318 316 316 314 313 312 311 310 310 310 309 309 308 308 307 307 306 306 306
320 321 321 321 321 321 322 322 322 324 324 323 324 325 326 326 326 325 324 324 326 328 329 329 330 330 329 330 331 331 330 331 333 334 335 336 337 337 337 336 335 336 336 335 335 335 335 335 335 334 334 333 333 332 332 332 331 330 329 328 326 324 322 322 321 320 319 317 316 315 314 312 311 311 310 310 310 309 309 308 308 308 307 307 307 306
320 321 321 321 321 321 322 322 322 323 324 323 323 324 323 324 325 325 323 323 325 326 327 328 329 329 329 330 330 330 329 329 330 332 333 334 333 332 333 336 335 335 336 335 335 336 335 334 335 334 333 333 332 331 331 331 331 330 328 326 325 323 322 321 321 319 318 316 315 314 313 311 311 311 310 310 310 310 309 309 309 308 308 307 306 306
321 320 321 321 321 322 322 322 322 323 324 324 324 324 323 322 324 325 323 322 324 325 325 326 327 328 328 328 328 329 328 329 330 331 332 332 331 330 329 331 335 335 335 334 334 335 335 334 334 333 332 332 332 331 332 331 331 330 328 326 324 322 321 320 320 318 317 316 315 314 312 312 312 311 310 310 310 310 309 308 308 308 308 307 306 305
Wind_Speed
11 10 10 11 13 16 18 20 21 21 22 22 19 17 18 17 15 18 20 17 20 20 21 25 24 23 25 24 21 17 14 17 20 19 16 16 15 13 14 13 13 13 11 12 17 22 24 25 26 25 23 23 25 27 28 28 26 26 26 25 23 23 23 22 21 22 21 19 19 19 18 18 15 12 10 9 9 10 10 10 11 11 11 10 9 10
12 11 12 15 17 19 20 21 22 22 24 22 18 16 17 17 15 19 20 18 21 18 16 23 26 25 25 22 21 20 18 17 20 21 19 19 15 13 14 14 14 11 11 14 15 18 22 23 25 24 22 23 25 26 27 27 28 28 27 26 25 24 23 22 23 24 23 20 21 22 19 17 15 13 12 11 10 12 12 11 10 10 10 10 10 10
11 12 15 18 18 19 20 20 22 23 23 19 16 15 15 15 15 18 21 21 20 14 14 23 24 22 25 23 21 23 21 16 18 21 19 19 16 13 14 12 14 12 11 14 14 16 21 22 25 24 23 24 25 26 27 28 29 29 27 25 24 25 24 23 24 23 22 22 22 21 20 18 15 13 12 11 11 13 13 11 11 11 10 10 11 10
10 12 17 20 19 20 21 21 22 21 18 16 15 14 13 15 16 14 18 23 22 15 16 21 19 16 20 21 20 21 22 18 15 13 13 16 16 15 14 11 14 14 13 16 15 15 18 22 24 24 24 25 26 28 28 29 30 27 26 25 25 26 25 24 26 22 21 23 21 20 19 16 14 13 13 13 13 14 14 13 12 12 12 11 11 9
14 14 16 20 21 21 21 21 21 16 13 16 18 16 14 18 21 17 17 20 20 19 21 21 15 12 15 19 19 18 20 21 15 11 12 15 15 15 14 13 15 15 16 17 18 17 17 19 22 24 25 25 27 31 31 28 28 26 27 27 26 29 27 25 26 23 22 23 21 19 17 14 14 15 15 14 14 16 16 14 13 13 12 11 10 8
16 18 16 19 21 21 21 18 20 17 11 14 19 20 19 21 23 22 20 17 13 15 21 21 14 11 15 19 19 17 17 19 17 18 19 17 17 17 13 13 15 16 18 18 19 19 18 19 22 24 25 25 26 32 31 26 26 27 27 27 27 29 28 27 27 25 24 24 22 22 20 19 18 17 16 15 17 18 17 16 14 13 12 11 10 9
12 18 19 19 19 20 20 17 20 20 13 11 15 21 23 25 24 23 24 19 12 12 18 21 15 9 12 17 20 18 18 21 19 21 24 19 17 18 14 12 13 17 19 19 20 21 18 18 21 22 24 27 26 28 31 27 24 25 26 26 27 26 26 28 28 27 26 25 24 23 22 21 20 17 15 16 17 18 17 17 16 14 13 12 12 10
11 18 20 20 19 17 16 14 18 20 15 10 15 20 23 26 26 24 24 18 12 12 16 22 18 10 9 14 19 21 20 22 22 22 25 23 19 18 16 14 13 18 20 19 20 21 18 18 21 22 23 27 27 25 29 29 25 25 26 26 26 26 27 28 28 28 27 26 25 23 20 18 18 16 16 17 17 18 19 18 17 15 13 11 11 9
12 17 18 19 17 13 13 14 18 21 16 13 17 20 20 24 26 25 21 14 13 14 14 19 20 12 10 11 17 23 23 22 24 25 26 25 22 19 17 16 14 19 21 19 19 21 20 20 23 25 24 26 27 25 26 27 27 25 26 27 26 25 26 27 27 28 27 26 25 23 20 18 17 16 18 20 19 18 19 18 16 15 14 12 11 9
12 14 16 17 14 12 14 16 18 21 16 15 19 20 18 20 22 22 16 11 13 13 12 18 19 12 9 12 13 19 21 21 22 22 22 22 22 20 17 17 16 18 19 19 19 19 20 22 25 26 25 26 27 25 24 26 28 26 26 29 27 25 26 25 26 27 26 25 24 23 22 19 19 19 20 21 19 18 18 17 16 16 15 13 12 9
15 16 14 13 12 12 15 16 17 20 19 17 19 17 15 16 17 16 12 9 10 10 13 20 21 15 10 12 13 12 16 20 19 16 19 21 23 22 18 16 16 18 17 19 20 19 20 24 27 27 26 27 26 25 24 26 27 26 26 29 28 25 26 26 27 27 26 26 25 23 23 21 21 22 22 21 19 19 19 18 17 16 14 12 10 9
17 17 12 11 13 14 15 15 16 18 20 18 15 13 12 11 13 12 9 9 9 8 13 21 24 19 13 10 12 13 16 22 19 16 21 23 23 22 18 17 17 18 19 19 20 20 20 22 25 25 25 26 26 26 26 25 26 25 26 30 29 27 27 27 29 28 25 26 25 23 22 22 23 23 22 21 19 19 18 17 16 15 15 13 9 9
14 15 14 14 15 15 15 13 12 15 17 16 14 13 10 8 9 9 9 8 7 7 12 20 22 18 13 11 14 18 19 22 19 17 20 23 23 20 19 19 16 17 19 19 18 19 19 18 19 22 24 26 27 27 26 25 26 26 27 30 29 28 28 29 29 27 26 26 26 23 22 24 24 22 21 21 19 18 17 16 16 17 17 14 12 12
10 12 15 16 13 14 16 12 9 11 13 14 14 13 11 8 8 9 9 8 7 9 15 22 20 13 12 13 17 20 18 20 20 18 19 22 21 19 19 20 18 19 20 18 18 19 19 18 17 21 25 25 25 27 26 25 27 26 27 30 29 28 29 28 28 27 26 26 25 24 23 25 25 22 20 20 19 18 17 17 18 19 18 15 14 14
10 9 11 14 11 12 17 15 11 11 12 13 15 14 11 9 7 7 8 8 8 9 15 20 16 11 10 10 17 21 17 16 19 18 18 19 19 17 18 20 19 20 19 17 18 19 20 21 20 21 25 25 25 27 26 26 27 27 27 29 29 28 29 28 28 28 26 26 25 24 24 26 25 22 20 20 20 20 20 18 18 18 16 15 14 15
11 9 10 14 15 16 16 15 14 13 11 11 14 13 10 10 8 6 7 10 9 8 10 12 8 8 10 9 15 20 20 18 19 21 19 19 20 18 17 19 18 17 17 17 17 18 20 21 21 22 24 25 25 27 27 27 28 27 28 29 28 28 29 29 29 28 26 26 25 24 25 26 25 22 21 21 21 20 20 19 18 17 17 16 15 15
8 8 10 14 18 19 17 15 16 13 9 8 11 12 12 14 11 6 7 10 10 9 7 7 7 9 11 11 10 16 20 21 19 23 21 19 21 19 16 17 17 16 16 17 17 19 21 20 20 24 25 26 27 27 28 28 29 29 29 29 28 28 28 29 29 28 26 25 25 25 26 26 24 23 22 22 22 20 19 19 18 17 17 17 17 17
6 7 11 14 18 19 17 17 18 17 12 7 9 13 14 15 12 7 6 8 9 9 6 9 13 12 11 8 8 15 21 20 17 22 20 18 19 19 16 16 18 16 16 20 21 22 22 20 20 25 27 27 28 29 29 28 28 29 28 29 30 29 29 29 28 28 26 25 25 26 26 25 24 23 22 22 22 21 21 21 19 18 19 19 19 19
2 5 10 15 17 18 16 17 16 18 19 14 11 13 13 11 11 8 6 6 10 9 7 12 16 13 11 10 10 15 19 17 16 19 18 18 17 17 15 16 18 16 16 19 21 20 20 19 21 25 28 29 29 29 29 28 27 28 28 29 30 30 29 29 28 28 26 25 26 26 26 25 25 23 22 22 22 22 22 22 20 18 20 21 19 18
2 1 7 12 17 17 13 12 11 12 17 16 13 11 11 9 9 9 7 6 9 9 7 12 14 11 10 10 12 16 16 14 14 17 15 16 16 15 15 15 15 15 17 18 18 18 18 19 23 28 29 29 30 30 28 28 28 28 28 29 30 30 29 29 28 27 26 26 26 26 26 26 24 23 22 22 23 24 22 21 20 19 19 18 16 17
3 5 5 9 14 15 10 10 12 12 12 12 10 9 10 9 8 9 8 7 8 7 7 9 9 9 8 9 13 17 16 13 12 15 13 13 15 15 14 14 13 14 18 18 17 18 19 19 22 27 29 29 29 29 28 27 28 29 29 29 30 31 30 29 28 28 27 26 26 27 27 26 24 23 23 23 23 23 21 19 20 21 20 18 17 18
4 5 6 7 8 11 11 12 15 15 11 10 9 9 11 11 9 8 8 8 7 7 7 7 7 8 8 9 10 12 12 12 12 16 12 11 15 16 13 14 14 15 19 19 18 19 18 17 20 24 27 28 28 28 29 28 28 29 30 30 29 30 30 29 28 27 27 26 27 28 28 27 25 25 25 24 22 23 21 19 20 21 21 20 19 19
5 3 5 8 7 10 14 16 16 17 14 11 11 11 13 12 11 8 7 7 7 9 10 9 7 6 6 7 7 9 9 9 10 14 11 10 12 15 15 15 14 15 20 20 18 18 18 16 19 23 25 26 27 28 29 28 28 29 30 30 29 29 30 29 27 27 26 27 28 28 28 27 26 26 26 25 24 23 22 21 21 22 22 21 20 19
4 2 3 8 8 9 12 15 16 15 13 11 11 12 13 13 12 9 7 7 7 9 11 9 7 5 3 3 5 10 11 9 8 11 12 11 10 13 17 16 15 16 19 21 19 17 16 17 18 19 21 23 25 26 28 28 28 28 28 29 29 30 30 30 28 26 26 27 29 29 28 28 26 26 27 26 25 24 23 22 22 22 21 20 19 19
2 1 2 4 5 7 7 9 12 12 10 8 9 12 15 17 16 12 9 9 6 8 11 9 6 5 3 2 6 11 12 12 12 12 12 11 10 13 15 14 15 16 17 20 20 18 17 18 17 16 18 22 25 25 27 28 28 29 28 28 29 30 30 29 28 28 27 28 30 29 29 28 27 26 27 26 25 25 24 23 22 21 20 19 19 18
1 2 1 2 4 7 7 7 8 9 8 8 11 15 18 22 21 13 7 7 3 6 10 7 4 4 3 4 9 12 11 12 13 13 12 10 10 12 12 13 15 16 17 18 18 18 17 17 17 16 17 22 26 26 27 28 28 28 28 28 28 29 30 29 28 29 28 28 29 29 29 29 28 28 28 26 26 26 25 24 23 22 20 19 19 19
0 3 4 5 5 4 6 8 10 10 9 10 14 17 20 22 22 14 5 4 4 7 8 4 2 5 5 8 9 11 10 8 8 11 12 9 9 10 10 13 14 14 16 18 17 16 17 17 17 18 18 21 25 26 27 27 27 27 28 28 27 28 29 27 28 30 28 28 28 28 29 29 28 29 28 25 27 27 25 24 23 22 21 20 20 21
1 4 6 6 7 9 8 6 12 15 14 15 16 17 18 19 19 12 6 5 6 7 5 0 3 4 8 10 7 7 8 4 1 6 9 7 9 11 11 13 16 16 16 16 17 18 18 17 17 17 17 20 24 26 26 27 27 27 27 28 28 28 29 28 29 30 28 27 27 28 30 29 28 29 27 26 28 28 25 24 24 23 22 21 22 22
3 5 6 7 7 8 8 7 10 14 14 14 15 15 16 17 19 14 9 9 9 7 3 1 2 4 5 6 5 1 5 6 1 1 6 8 7 10 13 13 14 17 19 18 17 18 18 18 18 17 17 19 23 26 26 27 29 27 26 27 27 28 29 30 30 30 27 26 27 28 30 29 27 28 26 26 28 27 26 25 24 23 23 22 21 21
3 4 5 8 9 9 11 12 13 15 13 14 16 17 17 17 19 15 12 11 11 9 5 2 3 3 4 4 8 5 4 6 4 3 6 9 9 8 9 10 8 9 16 20 19 17 17 18 18 17 17 18 23 26 26 27 29 28 27 27 26 28 31 30 30 29 27 26 28 28 29 29 28 28 27 26 28 28 27 26 25 23 22 21 20 20
2 4 4 3 6 10 12 12 12 16 16 15 16 18 18 18 17 15 11 9 9 8 6 2 3 2 4 1 8 6 3 4 4 2 4 8 10 11 8 7 7 8 12 17 19 17 17 17 16 16 17 18 23 27 26 25 27 28 28 27 25 28 32 30 28 29 26 26 28 29 29 28 28 28 27 26 27 29 28 27 25 23 22 21 21 20
1 3 4 2 3 7 8 8 6 10 15 15 15 16 17 17 15 12 9 8 7 6 6 6 3 1 2 0 6 4 2 4 5 5 4 3 9 14 11 8 11 13 13 14 15 16 16 17 18 17 18 19 24 27 25 25 26 26 26 27 27 29 31 29 28 28 26 27 29 29 28 28 28 28 27 26 28 30 28 27 25 23 22 22 21 21
2 1 2 3 3 6 9 12 12 9 11 11 11 13 14 14 13 11 10 9 9 7 5 6 3 4 2 2 2 3 4 3 3 4 4 2 5 11 15 16 16 16 16 14 14 15 16 17 16 16 18 21 24 27 26 25 25 24 25 28 29 30 31 29 28 28 28 29 30 28 27 29 28 27 26 28 31 31 30 29 26 23 22 22 21 21
1 3 2 3 1 4 9 13 12 8 8 6 6 10 14 15 15 14 11 9 11 10 5 5 3 4 5 2 3 5 5 6 2 0 2 1 2 5 11 15 15 15 16 16 15 14 14 14 14 17 21 22 24 27 27 26 24 23 25 28 28 30 30 27 27 28 28 29 30 28 27 28 28 27 27 30 33 32 30 28 25 23 22 22 22 22
1 1 2 2 0 2 4 6 5 5 6 6 7 11 14 14 14 14 12 11 13 13 9 9 10 4 1 2 6 6 5 8 5 4 5 5 3 3 7 11 14 15 14 15 16 15 13 12 14 17 21 24 25 26 26 26 25 24 26 27 27 29 28 26 26 28 27 28 29 29 28 28 28 28 30 32 32 30 28 26 24 23 22 22 23 23
3 3 3 2 1 1 1 3 4 3 5 9 5 10 12 12 11 10 10 12 13 13 12 12 12 7 5 7 8 6 1 5 6 5 7 8 6 5 6 8 12 14 13 14 15 14 13 14 18 21 23 24 25 26 26 25 25 25 26 27 27 27 26 25 27 28 27 29 30 30 30 29 28 30 32 32 31 28 26 25 25 24 23 22 22 22
4 3 2 2 1 1 2 5 5 4 4 7 4 3 5 7 8 7 6 8 11 13 12 12 10 9 9 10 9 7 6 3 3 5 10 10 7 6 6 7 8 11 13 14 16 16 15 19 25 26 25 25 25 25 26 27 27 26 26 27 27 26 24 25 27 27 28 30 30 30 30 30 30 31 31 31 29 27 26 26 25 24 24 23 23 22
2 2 2 2 1 1 3 5 5 4 2 1 6 8 7 5 5 5 5 5 7 10 11 10 10 10 10 10 9 7 8 7 4 4 4 5 3 3 6 8 8 9 12 12 13 15 16 21 26 27 26 26 26 26 26 27 27 25 25 26 27 26 23 24 25 26 28 30 30 29 29 30 32 33 31 30 29 27 26 26 26 25 25 24 23 22
2 1 3 4 3 3 3 4 4 3 1 2 7 11 11 10 7 4 6 6 6 8 10 10 10 10 10 10 9 7 8 7 3 1 3 6 3 3 5 9 9 10 11 12 12 14 19 23 24 25 26 26 25 25 26 28 27 25 23 24 26 25 23 23 24 26 28 29 28 28 27 28 31 34 33 31 31 29 27 27 25 25 24 23 22 23
4 3 3 4 5 4 4 4 4 2 1 2 7 9 9 11 9 6 7 4 2 4 7 9 11 10 9 9 8 7 8 6 1 2 3 5 6 6 6 8 10 11 11 12 13 17 23 25 22 22 23 21 23 26 28 29 28 25 23 24 24 23 22 24 25 26 26 26 26 27 27 27 30 32 32 31 31 29 27 27 25 25 25 23 22 23
5 4 4 5 6 5 4 4 4 1 2 1 7 9 8 8 7 6 5 2 6 8 7 7 10 11 9 8 8 7 5 2 4 4 5 7 8 9 8 7 8 12 14 15 16 19 23 24 22 22 21 20 23 27 28 28 27 24 23 23 22 21 23 26 27 27 27 26 26 27 27 27 28 29 28 28 28 27 26 27 27 27 26 25 23 22
4 3 4 6 6 6 5 4 3 2 0 4 8 10 8 5 3 2 2 6 9 10 10 8 8 11 9 9 8 5 3 7 6 4 6 7 7 9 11 11 10 13 18 21 22 21 22 22 21 23 23 23 25 27 28 27 25 23 23 22 20 21 25 28 30 30 29 27 26 25 24 25 27 27 26 27 28 28 28 27 28 28 27 25 22 22
3 4 5 4 3 4 5 4 3 2 3 7 9 6 3 2 2 3 6 8 9 10 11 10 7 8 10 9 7 4 5 6 4 4 6 8 7 8 11 14 13 14 17 21 22 23 23 21 21 23 24 25 25 26 27 26 24 23 22 21 21 23 25 26 28 29 28 26 24 23 24 25 27 27 27 28 30 29 28 27 28 27 26 24 22 22
2 4 5 2 0 2 4 2 1 3 3 6 7 5 4 2 3 5 7 6 7 9 9 9 8 5 6 7 4 4 5 5 3 4 5 7 9 9 9 11 12 15 17 19 21 23 23 20 20 22 24 24 25 25 25 24 23 22 21 21 22 23 23 23 25 26 27 26 25 24 26 28 28 28 28 30 30 29 28 28 28 27 25 23 23 23
3 5 6 4 3 4 4 2 1 3 3 5 6 5 7 7 4 4 6 5 6 8 7 6 9 12 11 3 6 7 4 2 3 6 7 8 8 9 9 10 13 16 17 19 21 21 21 21 21 21 23 24 24 24 24 23 21 21 21 22 23 25 25 25 24 25 26 26 25 26 27 27 27 27 29 31 31 30 29 29 28 26 24 23 23 22
6 7 6 5 6 6 4 3 4 1 3 6 6 6 7 12 5 2 5 5 5 7 7 6 6 10 14 7 6 7 3 2 3 5 8 9 9 9 10 11 14 15 15 19 20 19 19 21 22 21 21 23 24 24 24 24 23 21 21 22 25 27 28 27 25 24 24 24 24 25 27 27 26 27 29 29 29 29 29 30 29 26 24 24 23 21
6 7 5 5 8 8 5 5 8 4 6 6 4 5 5 11 7 4 4 6 5 6 7 7 7 6 11 11 5 4 1 2 4 5 7 8 9 10 11 11 13 14 15 18 19 20 20 20 19 19 19 21 23 23 22 23 23 22 21 21 24 27 28 27 26 24 22 22 24 25 27 27 27 28 29 28 28 27 26 26 27 26 24 24 22 20
4 5 5 5 4 3 3 3 8 7 5 6 2 2 2 7 7 4 4 5 7 6 6 6 7 5 6 10 8 9 6 4 1 4 6 7 7 8 9 11 12 13 18 20 19 20 21 20 18 18 18 18 20 21 20 20 21 21 21 21 22 25 26 26 26 24 21 22 24 24 25 27 27 28 28 27 27 27 26 24 24 23 23 23 23 22
3 1 5 7 3 0 3 4 8 7 1 3 2 4 4 5 8 6 5 7 9 9 6 5 3 5 1 4 9 11 7 8 6 1 5 5 4 3 3 8 13 15 19 21 20 19 21 20 19 19 18 17 19 20 19 19 20 20 23 24 22 23 25 25 24 23 21 22 22 22 23 26 26 25 26 25 23 23 23 24 24 22 21 22 22 23
3 1 4 7 4 2 2 6 8 6 2 1 3 5 5 7 9 8 7 9 10 9 7 4 3 3 3 4 8 8 3 6 7 4 5 3 4 5 1 3 8 15 18 19 18 18 21 22 21 20 19 17 19 20 20 20 20 21 24 26 23 22 25 26 24 22 21 21 20 21 23 25 23 20 21 23 22 19 19 21 22 20 19 21 22 23
2 2 1 2 3 2 4 7 6 4 4 4 4 4 4 5 7 8 8 8 7 7 6 4 4 5 5 6 8 8 6 7 10 8 7 3 3 10 4 7 2 11 16 15 13 14 18 21 22 21 19 17 18 19 19 19 21 23 25 25 23 22 24 25 23 20 19 19 20 21 23 23 21 19 19 21 21 20 20 21 20 18 18 19 22 22
Wind_Direction
208 221 220 223 226 224 219 221 227 228 230 235 236 233 231 229 229 231 226 218 226 224 209 212 222 225 224 223 220 225 214 207 227 224 198 203 199 192 214 206 179 174 163 150 156 159 158 159 160 163 167 160 154 160 163 164 166 170 175 176 175 178 178 172 167 166 163 164 167 171 176 175 170 169 167 171 178 170 162 158 153 152 150 145 137 125
211 222 226 223 227 231 227 223 226 230 233 235 239 241 236 232 228 229 226 216 224 231 211 206 218 229 228 222 217 223 226 213 222 227 205 195 191 191 217 205 179 177 156 143 149 155 153 155 159 160 164 160 157 162 166 167 171 175 176 175 174 177 176 171 169 169 169 169 174 176 172 169 169 168 168 169 166 162 163 159 148 147 143 133 129 128
224 226 228 229 229 231 235 231 225 229 233 234 237 242 241 237 229 225 227 223 221 225 220 210 212 223 227 227 223 216 221 224 228 228 205 185 183 193 218 204 174 168 145 135 138 147 150 155 160 161 164 164 162 166 171 174 178 177 175 174 174 174 172 173 173 172 174 174 177 177 168 165 168 168 168 166 156 152 152 147 142 142 137 133 136 138
233 225 223 231 235 231 232 233 230 227 230 234 234 236 239 242 240 225 219 224 223 221 225 221 214 216 219 223 232 221 211 219 228 220 187 176 184 199 212 193 170 163 138 133 141 149 154 159 164 164 165 165 163 170 179 182 180 174 173 174 173 172 171 174 176 174 176 177 176 172 165 163 165 162 162 158 149 145 141 139 139 138 137 140 142 140
239 237 219 221 232 236 234 231 231 230 227 229 231 234 234 238 245 240 220 216 223 224 223 226 222 213 212 212 224 225 207 208 210 189 179 183 191 204 206 187 173 159 141 145 153 157 160 164 168 167 166 164 166 178 186 184 177 173 174 174 173 172 170 171 176 175 173 174 172 166 162 162 158 155 156 155 151 147 141 139 139 137 137 137 134 133
240 244 233 221 222 230 237 235 229 229 232 227 226 231 237 239 241 246 238 218 217 226 216 220 228 212 208 212 219 218 203 205 202 189 192 194 196 205 203 191 178 155 146 153 158 163 165 165 169 170 166 164 173 186 189 182 175 175 174 172 172 172 169 169 174 173 170 170 171 167 165 165 159 155 161 163 159 153 149 146 145 143 145 144 141 145
241 243 243 236 226 223 230 238 233 229 231 231 224 223 234 243 242 248 248 230 218 224 211 215 229 222 210 216 220 216 204 204 204 196 197 199 199 200 200 199 176 148 147 155 158 163 165 163 168 171 167 170 181 189 188 182 175 173 172 168 167 168 168 171 173 171 169 170 172 171 170 169 163 159 167 169 163 156 152 150 149 149 151 151 151 152
241 243 244 239 235 230 226 230 235 234 230 232 231 221 225 237 244 250 248 238 231 228 218 214 215 218 222 215 210 211 208 205 208 202 193 195 200 195 197 204 173 147 148 154 159 164 164 164 168 170 170 175 183 186 185 182 174 170 168 163 162 164 165 169 172 172 172 171 173 174 172 170 166 163 165 166 162 156 153 150 148 148 145 147 153 153
236 240 244 239 238 238 234 226 229 237 233 227 235 229 222 229 240 247 241 237 240 231 223 213 203 205 230 225 204 203 207 207 211 206 189 188 199 197 198 202 172 148 149 153 161 166 166 166 167 168 171 177 182 184 182 177 174 170 165 163 162 163 165 168 172 174 175 173 175 176 174 169 168 165 164 163 159 156 155 151 149 149 144 140 142 144
249 245 246 244 243 240 241 231 225 237 237 227 235 237 230 227 235 241 233 240 250 238 228 212 200 200 227 238 216 199 203 208 212 205 187 187 198 197 201 200 170 147 147 153 158 162 164 164 163 164 171 178 181 184 180 174 175 172 165 165 164 163 168 171 173 175 176 176 176 176 175 171 167 166 165 164 161 159 158 153 153 154 149 144 142 142
258 266 266 257 254 250 251 241 224 235 244 235 232 235 234 227 229 237 233 247 261 243 226 212 202 202 216 233 232 212 200 204 211 199 182 189 197 195 200 198 172 153 152 157 158 160 160 158 158 162 171 178 177 179 179 175 178 175 167 166 167 168 172 174 176 178 179 179 177 177 176 172 168 168 168 169 167 165 161 157 158 153 143 144 148 150
245 252 258 260 259 257 262 251 223 227 243 242 229 226 233 222 218 230 232 243 256 243 223 212 206 209 214 218 232 237 211 199 207 198 181 187 196 195 196 192 178 162 156 158 158 158 157 155 158 165 170 173 173 176 179 179 180 179 172 167 167 171 174 175 178 181 181 181 180 180 177 174 172 171 172 173 171 168 164 161 159 150 143 145 144 145
239 238 236 244 250 250 260 254 222 219 234 238 227 218 222 218 210 218 224 229 243 256 240 218 207 213 223 214 223 238 217 197 206 200 182 186 195 195 191 186 179 168 160 155 153 155 157 157 160 167 169 170 173 176 178 178 180 180 174 168 169 174 176 177 179 181 182 181 182 183 180 177 175 173 174 175 171 168 166 164 161 155 151 150 146 146
242 239 234 238 242 241 250 247 219 215 224 229 227 215 209 213 206 204 215 220 228 252 242 221 210 219 233 215 217 235 223 197 201 199 183 186 194 192 188 186 179 174 168 154 148 153 159 162 161 165 169 169 173 176 175 178 181 180 174 170 173 177 178 179 179 182 183 180 182 185 183 178 174 173 174 173 170 169 169 168 165 160 156 153 154 156
247 244 231 230 228 227 239 242 229 223 225 227 226 221 217 218 208 201 210 212 212 229 228 216 209 218 230 211 205 224 235 210 193 191 184 183 190 190 187 188 181 176 172 153 147 153 156 161 162 165 169 169 174 175 174 180 183 179 174 173 175 176 178 180 179 182 182 180 185 187 183 176 172 172 173 171 170 170 171 170 164 160 158 157 160 164
251 253 238 230 225 223 229 232 230 230 229 224 220 220 219 211 206 211 219 220 220 227 224 216 210 210 230 242 207 205 231 227 188 180 186 182 186 190 187 188 181 175 169 151 143 148 151 158 162 166 169 169 173 174 174 181 185 179 174 175 178 178 178 179 179 181 180 181 186 185 180 175 171 173 174 172 171 171 172 169 163 161 163 164 165 164
251 254 252 237 221 221 226 220 220 229 230 217 216 221 220 212 211 214 214 220 231 239 230 217 217 210 220 247 223 197 222 230 190 175 187 187 185 188 187 184 179 175 164 145 141 149 153 160 165 167 169 169 172 173 176 183 185 180 176 175 177 178 179 179 178 180 180 180 182 179 176 173 172 176 176 171 169 170 170 167 166 169 168 166 164 160
259 271 276 252 218 211 222 220 217 224 228 222 215 218 221 219 217 220 210 205 220 236 235 218 219 219 212 213 206 200 216 224 190 171 185 192 187 187 185 178 177 174 153 140 144 151 157 164 166 167 170 172 173 174 177 182 182 181 179 177 177 177 179 179 177 180 183 180 176 173 174 173 173 175 173 169 169 170 168 165 170 172 164 161 161 158
241 281 289 263 224 201 210 217 214 219 225 235 235 219 218 218 209 213 220 203 206 214 222 220 220 227 225 202 189 202 216 217 184 169 184 194 188 185 180 176 176 163 140 139 145 150 158 165 167 169 171 173 174 174 177 179 178 180 181 181 179 178 179 178 178 181 182 178 173 172 173 174 171 171 169 168 169 168 164 164 169 166 158 158 159 158
128 239 293 265 219 194 197 207 207 212 217 230 246 236 225 223 209 211 227 227 214 205 206 217 219 226 228 210 198 202 215 220 182 163 187 197 184 180 175 174 175 152 138 143 145 150 159 164 168 170 171 174 174 173 174 175 176 179 181 182 180 178 178 178 179 180 177 174 172 171 172 171 170 170 170 168 166 165 164 166 169 167 160 160 161 161
181 207 276 269 215 194 191 199 204 206 205 216 235 246 239 225 211 213 224 231 222 208 208 214 217 223 219 215 210 196 202 222 184 160 188 197 177 173 169 170 173 153 144 148 147 152 159 163 168 169 169 172 171 169 171 172 177 180 181 181 179 177 177 177 177 177 174 172 171 170 170 168 170 172 170 166 165 167 168 168 168 168 163 161 163 164
215 226 264 271 219 197 194 194 203 208 207 210 217 241 248 226 210 215 217 225 230 222 220 220 220 216 205 212 212 186 195 219 185 167 188 192 174 170 167 172 173 156 149 151 149 152 157 162 167 167 167 167 166 169 171 171 178 181 179 178 178 176 176 176 175 174 172 170 169 169 168 168 172 173 169 166 166 168 170 167 166 166 162 160 163 165
232 246 281 272 230 205 197 190 201 210 211 217 218 232 244 226 212 218 212 219 240 241 231 229 230 214 195 207 190 170 202 219 177 170 186 190 178 171 169 175 173 158 152 151 151 153 157 161 164 166 167 164 165 171 172 173 179 180 177 177 178 177 176 176 174 173 171 169 168 167 167 169 171 169 167 168 168 168 168 166 164 163 160 159 162 164
242 215 279 266 224 201 201 190 196 209 214 223 227 232 237 225 212 216 218 216 228 238 230 227 232 211 190 219 176 168 197 203 175 180 190 191 183 168 168 170 163 155 148 146 149 154 158 157 158 165 168 163 164 170 172 176 179 178 177 178 178 177 177 176 172 169 168 166 166 166 166 168 168 165 165 169 171 168 164 163 163 160 158 159 161 163
272 285 297 263 197 180 206 197 188 202 214 226 238 238 235 229 218 213 224 224 223 241 234 224 218 192 168 206 174 169 189 192 183 191 196 196 181 164 165 159 147 146 140 140 148 151 155 157 157 166 170 164 165 170 174 179 179 177 178 180 179 177 176 175 171 168 167 165 166 167 167 168 169 167 167 169 170 167 161 161 162 158 157 159 162 164
218 282 303 256 204 178 194 197 184 191 207 222 238 242 242 236 223 210 220 234 257 281 259 243 205 160 153 200 170 160 183 195 186 189 195 187 164 154 152 139 136 142 139 140 147 150 155 161 162 165 168 167 169 171 175 178 178 176 178 180 179 175 175 175 171 168 168 166 166 168 168 169 169 168 169 169 168 164 161 161 161 157 157 161 165 166
224 262 263 256 258 246 220 197 180 182 202 219 229 238 247 243 228 211 204 224 246 276 272 268 119 134 175 201 169 148 172 195 187 189 192 171 143 136 132 131 137 142 141 144 151 155 159 163 165 166 166 167 171 172 175 176 176 176 178 178 176 173 173 173 169 166 167 167 167 168 169 169 168 168 170 170 167 163 160 162 161 157 159 165 169 170
280 291 283 269 269 278 274 227 183 183 201 217 225 236 246 252 247 235 211 209 233 255 259 129 94 156 193 194 172 147 156 162 271 202 180 148 137 144 144 145 149 149 145 150 159 163 164 164 165 166 166 167 170 173 175 176 176 177 178 177 174 172 172 169 164 163 166 169 169 168 169 170 167 168 171 170 167 163 161 162 161 160 163 171 174 175
264 290 299 296 285 275 280 267 211 194 204 217 227 237 241 252 261 249 218 212 229 245 254 105 149 226 208 154 129 110 138 128 1 261 119 90 102 148 158 155 155 158 154 154 162 165 165 166 166 166 168 168 169 172 175 176 176 175 175 177 174 171 170 167 163 163 165 168 168 168 170 170 167 168 169 167 165 163 162 163 163 164 169 174 177 177
294 303 320 324 314 293 278 262 226 203 208 219 224 228 228 240 251 239 215 215 228 246 274 3 58 347 330 75 90 39 38 92 61 29 105 103 88 104 126 120 122 157 161 158 164 170 169 170 168 166 168 169 170 174 176 176 174 172 174 177 173 167 168 166 164 164 166 167 167 167 168 170 171 170 168 166 165 164 163 165 165 167 171 175 178 178
347 303 312 334 306 283 266 249 216 198 206 217 222 222 220 228 235 229 224 222 225 245 272 302 69 45 299 349 89 70 34 85 88 83 131 134 121 106 96 103 131 163 167 164 167 170 170 169 167 167 170 171 173 175 176 175 173 171 173 175 169 165 166 167 166 166 166 166 169 168 167 168 171 171 168 167 167 166 165 167 168 169 172 176 178 179
151 291 312 330 305 289 277 279 270 224 215 218 221 220 220 225 225 223 233 239 232 237 236 232 220 111 245 273 77 92 186 134 133 149 136 148 153 143 141 165 179 173 167 169 169 168 172 171 170 172 174 173 173 174 175 173 170 169 171 170 166 164 166 167 168 168 165 163 167 169 169 169 168 167 167 168 169 168 168 169 170 171 174 177 179 179
160 107 329 307 324 320 308 316 318 280 234 222 220 217 219 225 227 224 227 238 253 256 232 217 190 112 175 231 110 191 202 105 91 136 125 146 185 167 170 180 185 179 170 170 172 172 175 175 172 172 171 171 173 173 173 171 169 168 167 166 164 163 165 168 168 166 164 163 164 167 168 170 169 166 167 169 170 170 170 170 171 173 176 177 178 179
170 136 218 248 305 322 315 326 326 283 232 218 221 223 223 221 220 224 221 220 238 246 254 278 260 151 152 187 202 203 163 109 73 4 137 179 218 200 193 184 182 184 175 168 170 175 179 176 167 162 165 169 171 170 169 171 170 165 163 164 164 162 165 166 164 163 164 163 166 167 165 167 170 170 171 171 170 170 170 172 173 175 177 177 177 180
229 194 251 247 169 303 306 317 304 248 237 253 224 216 230 230 219 222 225 221 229 233 235 259 269 266 105 200 229 224 152 129 160 228 252 264 265 223 204 188 184 185 175 163 166 176 182 172 157 157 164 171 170 166 166 170 170 166 163 164 163 163 164 162 158 161 163 163 166 168 166 167 171 173 172 170 169 168 170 173 175 176 177 177 178 181
288 303 312 320 317 302 282 274 249 215 294 301 247 196 218 234 225 220 223 218 221 228 230 235 246 262 276 256 247 260 265 139 163 213 240 249 251 230 207 197 187 176 166 160 164 176 183 165 154 158 166 170 168 165 166 168 168 166 163 162 160 160 162 160 158 161 164 163 163 166 169 172 173 172 170 169 168 168 170 175 177 176 176 176 178 180
299 319 344 353 324 282 298 302 280 240 284 308 298 204 206 227 230 230 231 217 209 218 228 231 231 235 249 261 268 285 288 243 196 238 233 218 219 219 196 194 186 164 152 151 158 171 174 157 152 158 163 164 164 166 167 166 165 163 160 159 160 159 160 159 161 164 163 163 164 167 172 175 173 170 169 169 170 172 174 177 177 176 176 175 176 180
36 359 322 307 278 251 299 315 294 260 240 302 308 320 337 325 279 248 245 238 213 219 230 229 229 231 235 251 261 270 273 262 250 269 243 166 156 221 187 173 164 142 132 138 154 162 154 146 149 154 158 161 164 166 165 162 162 158 153 154 158 159 159 159 162 164 162 163 168 171 173 174 173 171 171 172 173 174 175 176 176 177 177 176 177 180
93 15 298 276 266 269 286 302 295 293 359 337 309 319 331 326 310 249 231 232 209 221 235 231 230 232 225 231 238 241 255 255 237 330 52 94 115 219 185 158 146 132 128 140 155 153 141 139 145 150 155 161 163 162 159 155 154 152 148 151 157 160 162 161 163 165 164 165 171 173 173 174 175 175 175 175 176 176 176 176 176 176 178 178 178 178
234 246 259 266 271 268 260 273 285 290 108 297 304 316 326 319 301 235 208 223 262 266 252 236 230 229 224 226 226 223 237 244 184 110 105 123 160 180 165 154 150 142 137 141 152 154 145 140 142 146 152 155 152 151 154 153 150 149 149 152 157 162 167 167 167 169 170 171 173 174 175 178 178 177 177 177 177 176 175 176 175 175 175 175 173 172
248 251 252 259 267 265 257 268 283 267 126 329 312 308 308 307 285 222 194 290 327 321 306 262 232 223 220 223 221 223 228 162 115 129 139 146 159 156 146 148 144 142 146 148 153 156 146 139 143 147 147 144 143 146 152 153 150 151 154 158 164 169 169 169 170 173 176 178 176 173 177 181 180 178 178 178 174 171 171 175 175 173 171 170 169 168
255 258 250 252 261 269 265 262 267 249 21 344 320 303 292 274 234 217 305 317 315 321 326 305 243 217 217 224 222 209 128 108 124 152 149 150 154 144 146 156 153 152 154 148 145 145 139 138 150 154 147 143 145 151 155 154 153 157 160 163 171 174 170 169 173 175 176 176 173 171 175 180 179 177 176 175 171 169 170 173 174 172 169 168 168 166
291 279 258 245 249 268 263 264 275 277 344 342 326 313 326 347 320 321 318 316 325 335 333 318 276 213 204 214 215 178 121 111 138 167 150 152 156 144 150 161 159 150 145 139 138 141 142 148 159 158 151 147 149 155 159 157 157 161 164 166 173 178 176 173 172 171 170 171 172 173 176 178 180 180 177 173 172 171 170 170 169 168 168 167 166 166
269 279 287 292 339 281 277 285 284 253 297 345 352 359 10 353 309 308 310 320 337 342 339 331 323 296 228 206 167 117 107 112 158 190 169 158 156 150 157 159 141 129 134 141 146 146 147 152 156 153 152 152 154 159 162 160 160 161 165 170 172 172 172 171 166 162 162 166 168 169 171 175 179 181 178 175 175 172 168 167 165 166 168 170 169 167
264 298 312 295 277 293 300 306 265 248 301 14 41 23 319 287 261 296 312 328 351 352 351 348 343 334 314 274 109 93 90 116 192 199 172 155 151 149 156 147 126 126 135 140 144 148 149 149 149 150 154 156 158 162 164 165 166 163 168 175 167 155 153 157 157 153 153 156 160 162 166 170 172 175 177 177 176 173 168 166 166 166 169 171 169 167
300 341 352 313 309 317 308 302 301 307 49 32 51 57 320 290 285 7 337 336 9 15 9 14 20 348 322 318 86 91 101 154 194 189 159 152 151 148 151 140 127 133 137 132 138 152 154 149 148 152 157 159 162 166 167 169 171 169 171 175 168 159 157 156 154 154 154 156 160 164 166 166 165 169 174 174 174 174 172 170 170 169 171 172 171 171
328 5 3 331 335 328 320 346 333 341 66 45 20 48 348 299 304 36 8 345 16 47 36 31 48 16 314 310 11 66 110 155 166 172 152 149 150 149 154 145 133 135 133 132 147 156 150 149 155 155 158 161 162 165 166 167 168 165 162 161 161 163 163 159 156 158 155 154 159 164 167 167 165 166 169 171 173 174 173 174 175 174 173 174 174 178
341 18 337 323 357 318 273 337 317 305 68 69 336 1 4 302 313 5 14 8 32 60 54 30 52 63 309 308 358 28 6 341 239 173 151 144 145 146 153 145 135 134 134 141 160 162 150 153 160 154 155 159 158 161 164 161 160 159 156 153 152 153 154 154 155 155 151 148 154 161 167 169 168 166 168 171 175 176 175 177 179 180 181 181 182 183
252 48 316 309 343 253 252 313 313 299 86 101 314 340 6 331 332 350 25 38 40 48 41 4 29 83 59 329 27 39 8 323 308 200 126 122 114 101 156 154 140 137 141 151 165 162 150 151 154 150 153 158 157 159 160 159 161 160 156 157 157 152 151 153 153 152 150 151 153 156 162 167 166 166 168 171 173 178 181 183 184 186 188 190 191 191
258 248 303 308 339 18 296 307 316 310 297 301 328 342 349 350 352 358 22 41 47 54 48 2 345 66 79 55 59 67 39 314 323 26 73 91 126 114 312 247 145 132 141 152 155 149 145 147 148 149 153 157 157 158 161 165 168 161 154 159 163 159 156 157 154 150 150 151 152 155 160 162 162 162 167 170 172 175 179 184 187 189 191 194 196 197
273 272 290 304 313 302 281 289 298 292 288 301 310 303 310 349 3 356 6 34 55 74 79 55 29 41 52 58 67 76 62 357 345 18 41 1 153 122 103 296 272 124 134 143 137 129 136 142 144 148 152 158 162 164 164 165 165 161 158 159 158 157 158 156 152 149 150 151 154 157 159 161 162 162 163 167 170 169 169 174 183 190 193 196 198 200